User: anonymous   Login
Location: Newark
(34.1333°N, 7.9667°W)
Time: 02:34:21
(UTC+00:00)
Language:

ITAMSAT 1 - Orbit

View from above orbital plane
View from above orbital plane
View from above satellite
View from above satellite

Ground track
Ground track

The orbit data is extracted from the following two-line orbital elements,

1 22826U 93061D   24106.58136742  .00000263  00000-0  11772-3 0  9990
2 22826  98.7900 158.5481 0007983 243.5901 116.4462 14.30834434593946
Epoch (UTC): 15 April 2024 13:57:10
Eccentricity: 0.0007983
inclination: 98.7900°
perigee height: 783 km
apogee height: 794 km
right ascension of ascending node: 158.5481°
argument of perigee: 243.5901°
revolutions per day: 14.30834434
mean anomaly at epoch: 116.4462°
orbit number at epoch: 59394

The dashed part of the orbit path shows where the satellite is in the earth's shadow,  

DLR